Modern Express — H9DG — position and weather

sailwx.info

Track history (hours):
 
Tides and Currents Weather Stations Pressure Air Temp Water Temp Dewpoint Dewpoint Depression Visibility Wind Speed Wind Dir Waves Ship Positions

Modern Express

Last reported at 2014-Oct-30 11:32 UTC. Time now 2014-Oct-30 12:18 UTC.
Position N 51°16' E 004°13'.

Length 164 m; beam 28 m.

Type: Cargo ship. MMSI: 356187000.

Date/timePositionNaut miles runAvg speedWind from/ knotsBaromVisibWave heightAir tempDewpointWater temp
2014-Oct-30 11:32N 51°16' E 004°13'0 0.0
2014-Oct-30 10:29N 51°16' E 004°13'0 0.0
2014-Oct-30 09:32N 51°16' E 004°13'0 0.0
2014-Oct-30 08:32N 51°16' E 004°13'0 0.0
2014-Oct-30 07:32N 51°16' E 004°13'0 0.0
2014-Oct-30 06:29N 51°16' E 004°13'0 0.0
2014-Oct-30 05:32N 51°16' E 004°13'0 0.0
2014-Oct-30 04:32N 51°16' E 004°13'0 0.0
2014-Oct-30 03:32N 51°16' E 004°13'0 0.0
2014-Oct-30 02:32N 51°16' E 004°13'0 0.0
2014-Oct-30 01:26N 51°16' E 004°13'0 0.0
2014-Oct-30 00:32N 51°16' E 004°13'0 0.0
2014-Oct-29 23:32N 51°16' E 004°13'0 0.0
2014-Oct-29 22:32N 51°16' E 004°13'0 0.0
2014-Oct-29 21:26N 51°16' E 004°13'0 0.0
2014-Oct-29 20:32N 51°16' E 004°13'0 0.0
2014-Oct-29 19:29N 51°16' E 004°13'0 0.0
2014-Oct-29 18:32N 51°16' E 004°13'0 0.0
2014-Oct-29 17:32N 51°16' E 004°13'0 0.0
2014-Oct-29 16:26N 51°16' E 004°13'0 0.0
2014-Oct-29 15:32N 51°16' E 004°13'0 0.0
2014-Oct-29 14:32N 51°16' E 004°13'0 0.0
2014-Oct-29 13:29N 51°16' E 004°13'0 0.0
2014-Oct-29 12:32N 51°16' E 004°13'0 0.0
2014-Oct-29 11:32N 51°16' E 004°13'0 0.0
2014-Oct-29 10:32N 51°16' E 004°13'0 0.0
2014-Oct-29 09:32N 51°16' E 004°13'0 0.0
2014-Oct-29 08:32N 51°16' E 004°13'0 0.0
2014-Oct-29 07:32N 51°16' E 004°13'0 0.0
2014-Oct-29 06:32N 51°16' E 004°13'0 0.0
2014-Oct-29 05:32N 51°16' E 004°13'0 0.0
2014-Oct-29 04:32N 51°16' E 004°13'0 0.0
2014-Oct-29 03:26N 51°16' E 004°13'0 0.0
2014-Oct-29 02:29N 51°16' E 004°13'0 0.0
2014-Oct-29 01:32N 51°16' E 004°13'0 0.0
2014-Oct-29 00:29N 51°16' E 004°13'0 0.0
2014-Oct-28 23:32N 51°16' E 004°13'0 0.0
2014-Oct-28 22:32N 51°16' E 004°13'0 0.0
2014-Oct-28 21:26N 51°16' E 004°13'0 0.0
2014-Oct-28 20:32N 51°16' E 004°13'0 0.0
2014-Oct-28 19:32N 51°16' E 004°13'0 0.0
2014-Oct-28 18:23N 51°16' E 004°13'0 0.0
2014-Oct-28 17:32N 51°16' E 004°13'0 0.0
2014-Oct-28 16:32N 51°16' E 004°13'0 0.0
2014-Oct-28 15:26N 51°16' E 004°13'0 0.0
2014-Oct-28 14:26N 51°16' E 004°13'0 0.0
2014-Oct-28 13:32N 51°16' E 004°13'0 0.0
2014-Oct-28 12:29N 51°16' E 004°13'0 0.0
2014-Oct-28 11:32N 51°16' E 004°13'0 0.0
2014-Oct-28 10:32N 51°16' E 004°13'0 0.0
2014-Oct-28 09:29N 51°16' E 004°13'0 0.0
2014-Oct-28 08:26N 51°16' E 004°13'0 0.0
2014-Oct-28 07:26N 51°16' E 004°13'0 0.0
2014-Oct-28 06:32N 51°16' E 004°13'0 0.0
2014-Oct-28 05:32N 51°16' E 004°13'0 0.0
2014-Oct-28 04:32N 51°16' E 004°13'0 0.0
2014-Oct-28 03:29N 51°16' E 004°13'0 0.0
2014-Oct-28 02:29N 51°16' E 004°13'0 0.0
2014-Oct-28 01:32N 51°16' E 004°13'0 0.0
2014-Oct-28 00:32N 51°16' E 004°13'0 0.0
2014-Oct-27 23:32N 51°16' E 004°13'0 0.0
2014-Oct-27 22:32N 51°16' E 004°13'0 0.0
2014-Oct-27 21:32N 51°16' E 004°13'0 0.0
2014-Oct-27 20:32N 51°16' E 004°13'0 0.0
2014-Oct-27 19:32N 51°16' E 004°13'0 0.0
2014-Oct-27 18:32N 51°16' E 004°13'0 0.0
2014-Oct-27 17:34N 51°16' E 004°13'0 0.3
2014-Oct-27 16:33N 51°16' E 004°14'2 1.9
2014-Oct-27 15:34N 51°16' E 004°17'3 2.8
2014-Oct-27 14:33N 51°19' E 004°16'7 7.4
2014-Oct-27 13:33N 51°22' E 004°06'6 6.2
2014-Oct-27 12:33N 51°22' E 003°56'10 9.8
2014-Oct-27 11:33N 51°26' E 003°41'9 9.0
2014-Oct-27 10:33N 51°25' E 003°27'7 6.5
2014-Oct-27 09:33N 51°24' E 003°16'7 6.9
2014-Oct-27 08:33N 51°24' E 003°05'10 9.9
2014-Oct-27 07:32N 51°25' E 002°49'10 9.8
2014-Oct-27 06:33N 51°21' E 002°35'6 5.1
2014-Oct-27 05:24N 51°21' E 002°26'8 9.8
2014-Oct-27 04:33N 51°16' E 002°14'1010.0
2014-Oct-27 03:33N 51°11' E 002°00'1212.3
2014-Oct-27 02:33N 51°05' E 001°44'1414.4
2014-Oct-27 01:34N 50°55' E 001°28'3815.7
2014-Oct-26 23:07N 50°27' E 000°45'1217.4
2014-Oct-26 22:25N 50°24' E 000°27'15914.6
2014-Oct-26 11:32N 49°35' W 003°28'37712.8
2014-Oct-25 06:05N 44°28' W 008°49'34214.5
2014-Oct-24 06:30N 38°50' W 009°51'1414.2
2014-Oct-24 05:33N 38°36' W 009°52'1514.8
2014-Oct-24 04:33N 38°21' W 009°54'1514.8
2014-Oct-24 03:33N 38°07' W 009°56'1514.6
2014-Oct-24 02:33N 37°52' W 009°57'1414.5
2014-Oct-24 01:33N 37°38' W 009°59'1414.5
2014-Oct-24 00:33N 37°23' W 009°60'1414.1
2014-Oct-23 23:33N 37°09' W 010°02'1413.9
2014-Oct-23 22:33N 36°55' W 010°03'2114.1
2014-Oct-23 21:04N 36°34' W 010°05'714.5
2014-Oct-23 20:33N 36°27' W 010°07'107 9.7
2014-Oct-23 09:33N 34°46' W 010°50'1 0.6
2014-Oct-23 08:33N 34°46' W 010°50'2712.9
2014-Oct-23 06:30N 34°21' W 011°01'1414.7
2014-Oct-23 05:33N 34°08' W 011°06'1514.5
2014-Oct-23 04:33N 33°55' W 011°12'  
Track history (hours):
 
Tides and Currents Weather Stations Pressure Air Temp Water Temp Dewpoint Dewpoint Depression Visibility Wind Speed Wind Dir Waves Ship Positions

Modern Express

Last reported at 2014-Oct-30 11:32 UTC. Time now 2014-Oct-30 12:18 UTC.
Position N 51°16' E 004°13'.

Length 164 m; beam 28 m.

Type: Cargo ship. MMSI: 356187000.

Date/timePositionNaut miles runAvg speedWind from/ knotsBaromVisibWave heightAir tempDewpointWater temp
2014-Oct-30 11:32N 51°16' E 004°13'0 0.0
2014-Oct-30 10:29N 51°16' E 004°13'0 0.0
2014-Oct-30 09:32N 51°16' E 004°13'0 0.0
2014-Oct-30 08:32N 51°16' E 004°13'0 0.0
2014-Oct-30 07:32N 51°16' E 004°13'0 0.0
2014-Oct-30 06:29N 51°16' E 004°13'0 0.0
2014-Oct-30 05:32N 51°16' E 004°13'0 0.0
2014-Oct-30 04:32N 51°16' E 004°13'0 0.0
2014-Oct-30 03:32N 51°16' E 004°13'0 0.0
2014-Oct-30 02:32N 51°16' E 004°13'0 0.0
2014-Oct-30 01:26N 51°16' E 004°13'0 0.0
2014-Oct-30 00:32N 51°16' E 004°13'0 0.0
2014-Oct-29 23:32N 51°16' E 004°13'0 0.0
2014-Oct-29 22:32N 51°16' E 004°13'0 0.0
2014-Oct-29 21:26N 51°16' E 004°13'0 0.0
2014-Oct-29 20:32N 51°16' E 004°13'0 0.0
2014-Oct-29 19:29N 51°16' E 004°13'0 0.0
2014-Oct-29 18:32N 51°16' E 004°13'0 0.0
2014-Oct-29 17:32N 51°16' E 004°13'0 0.0
2014-Oct-29 16:26N 51°16' E 004°13'0 0.0
2014-Oct-29 15:32N 51°16' E 004°13'0 0.0
2014-Oct-29 14:32N 51°16' E 004°13'0 0.0
2014-Oct-29 13:29N 51°16' E 004°13'0 0.0
2014-Oct-29 12:32N 51°16' E 004°13'0 0.0
2014-Oct-29 11:32N 51°16' E 004°13'0 0.0
2014-Oct-29 10:32N 51°16' E 004°13'0 0.0
2014-Oct-29 09:32N 51°16' E 004°13'0 0.0
2014-Oct-29 08:32N 51°16' E 004°13'0 0.0
2014-Oct-29 07:32N 51°16' E 004°13'0 0.0
2014-Oct-29 06:32N 51°16' E 004°13'0 0.0
2014-Oct-29 05:32N 51°16' E 004°13'0 0.0
2014-Oct-29 04:32N 51°16' E 004°13'0 0.0
2014-Oct-29 03:26N 51°16' E 004°13'0 0.0
2014-Oct-29 02:29N 51°16' E 004°13'0 0.0
2014-Oct-29 01:32N 51°16' E 004°13'0 0.0
2014-Oct-29 00:29N 51°16' E 004°13'0 0.0
2014-Oct-28 23:32N 51°16' E 004°13'0 0.0
2014-Oct-28 22:32N 51°16' E 004°13'0 0.0
2014-Oct-28 21:26N 51°16' E 004°13'0 0.0
2014-Oct-28 20:32N 51°16' E 004°13'0 0.0
2014-Oct-28 19:32N 51°16' E 004°13'0 0.0
2014-Oct-28 18:23N 51°16' E 004°13'0 0.0
2014-Oct-28 17:32N 51°16' E 004°13'0 0.0
2014-Oct-28 16:32N 51°16' E 004°13'0 0.0
2014-Oct-28 15:26N 51°16' E 004°13'0 0.0
2014-Oct-28 14:26N 51°16' E 004°13'0 0.0
2014-Oct-28 13:32N 51°16' E 004°13'0 0.0
2014-Oct-28 12:29N 51°16' E 004°13'0 0.0
2014-Oct-28 11:32N 51°16' E 004°13'0 0.0
2014-Oct-28 10:32N 51°16' E 004°13'0 0.0
2014-Oct-28 09:29N 51°16' E 004°13'0 0.0
2014-Oct-28 08:26N 51°16' E 004°13'0 0.0
2014-Oct-28 07:26N 51°16' E 004°13'0 0.0
2014-Oct-28 06:32N 51°16' E 004°13'0 0.0
2014-Oct-28 05:32N 51°16' E 004°13'0 0.0
2014-Oct-28 04:32N 51°16' E 004°13'0 0.0
2014-Oct-28 03:29N 51°16' E 004°13'0 0.0
2014-Oct-28 02:29N 51°16' E 004°13'0 0.0
2014-Oct-28 01:32N 51°16' E 004°13'0 0.0
2014-Oct-28 00:32N 51°16' E 004°13'0 0.0
2014-Oct-27 23:32N 51°16' E 004°13'0 0.0
2014-Oct-27 22:32N 51°16' E 004°13'0 0.0
2014-Oct-27 21:32N 51°16' E 004°13'0 0.0
2014-Oct-27 20:32N 51°16' E 004°13'0 0.0
2014-Oct-27 19:32N 51°16' E 004°13'0 0.0
2014-Oct-27 18:32N 51°16' E 004°13'0 0.0
2014-Oct-27 17:34N 51°16' E 004°13'0 0.3
2014-Oct-27 16:33N 51°16' E 004°14'2 1.9
2014-Oct-27 15:34N 51°16' E 004°17'3 2.8
2014-Oct-27 14:33N 51°19' E 004°16'7 7.4
2014-Oct-27 13:33N 51°22' E 004°06'6 6.2
2014-Oct-27 12:33N 51°22' E 003°56'10 9.8
2014-Oct-27 11:33N 51°26' E 003°41'9 9.0
2014-Oct-27 10:33N 51°25' E 003°27'7 6.5
2014-Oct-27 09:33N 51°24' E 003°16'7 6.9
2014-Oct-27 08:33N 51°24' E 003°05'10 9.9
2014-Oct-27 07:32N 51°25' E 002°49'10 9.8
2014-Oct-27 06:33N 51°21' E 002°35'6 5.1
2014-Oct-27 05:24N 51°21' E 002°26'8 9.8
2014-Oct-27 04:33N 51°16' E 002°14'1010.0
2014-Oct-27 03:33N 51°11' E 002°00'1212.3
2014-Oct-27 02:33N 51°05' E 001°44'1414.4
2014-Oct-27 01:34N 50°55' E 001°28'3815.7
2014-Oct-26 23:07N 50°27' E 000°45'1217.4
2014-Oct-26 22:25N 50°24' E 000°27'15914.6
2014-Oct-26 11:32N 49°35' W 003°28'37712.8
2014-Oct-25 06:05N 44°28' W 008°49'34214.5
2014-Oct-24 06:30N 38°50' W 009°51'1414.2
2014-Oct-24 05:33N 38°36' W 009°52'1514.8
2014-Oct-24 04:33N 38°21' W 009°54'1514.8
2014-Oct-24 03:33N 38°07' W 009°56'1514.6
2014-Oct-24 02:33N 37°52' W 009°57'1414.5
2014-Oct-24 01:33N 37°38' W 009°59'1414.5
2014-Oct-24 00:33N 37°23' W 009°60'1414.1
2014-Oct-23 23:33N 37°09' W 010°02'1413.9
2014-Oct-23 22:33N 36°55' W 010°03'2114.1
2014-Oct-23 21:04N 36°34' W 010°05'714.5
2014-Oct-23 20:33N 36°27' W 010°07'107 9.7
2014-Oct-23 09:33N 34°46' W 010°50'1 0.6
2014-Oct-23 08:33N 34°46' W 010°50'2712.9
2014-Oct-23 06:30N 34°21' W 011°01'1414.7
2014-Oct-23 05:33N 34°08' W 011°06'1514.5
2014-Oct-23 04:33N 33°55' W 011°12'  

Dump ship's entire track history